Previsão horária em Plocko

Hoje, 25 Fevereiro, Quinta-feira

Tempo Temperatura Precipitação Vento Pressão Humidade
00:00 +8°C° 0 mm 3 m/s 759 mmHg 92%
01:00 +8°C° 0 mm 3 m/s 759 mmHg 94%
02:00 +8°C° 0 mm 3 m/s 759 mmHg 93%
03:00 +7°C° 0 mm 2 m/s 759 mmHg 92%
04:00 +7°C° 0 mm 2 m/s 758 mmHg 91%
05:00 +7°C° 0 mm 3 m/s 758 mmHg 91%
06:00 +7°C° 0 mm 3 m/s 758 mmHg 92%
07:00 +5°C° 0 mm 3 m/s 758 mmHg 92%
08:00 +8°C° 0 mm 3 m/s 758 mmHg 89%
09:00 +9°C° 0 mm 3 m/s 758 mmHg 86%
10:00 +11°C° 0 mm 4 m/s 758 mmHg 83%
11:00 +12°C° 0 mm 4 m/s 757 mmHg 80%
12:00 +13°C° 0 mm 4 m/s 757 mmHg 77%
13:00 +14°C° 0 mm 4 m/s 757 mmHg 74%
14:00 +14°C° 0 mm 4 m/s 757 mmHg 75%
15:00 +13°C° 0 mm 4 m/s 756 mmHg 77%
16:00 +13°C° 0 mm 3 m/s 756 mmHg 79%
17:00 +12°C° 0 mm 3 m/s 756 mmHg 83%
18:00 +11°C° 0 mm 3 m/s 756 mmHg 87%
19:00 +10°C° 0 mm 3 m/s 756 mmHg 91%
20:00 +9°C° 0 mm 3 m/s 756 mmHg 92%
21:00 +8°C° 0 mm 4 m/s 756 mmHg 92%
22:00 +7°C° 0 mm 4 m/s 756 mmHg 92%
23:00 +6°C° 0 mm 4 m/s 756 mmHg 93%

Amanhã, 26 Fevereiro, Sexta-feira

Tempo Temperatura Precipitação Vento Pressão Humidade
00:00 +6°C° 0 mm 4 m/s 757 mmHg 93%
01:00 +5°C° 0 mm 4 m/s 757 mmHg 93%
02:00 +4°C° 0 mm 4 m/s 757 mmHg 89%
03:00 +3°C° 0 mm 5 m/s 757 mmHg 86%
04:00 +2°C° 0 mm 5 m/s 757 mmHg 82%
05:00 +2°C° 0 mm 5 m/s 756 mmHg 84%
06:00 +2°C° 0 mm 5 m/s 756 mmHg 86%
07:00 +1°C° 0 mm 5 m/s 756 mmHg 88%
08:00 +2°C° 0 mm 5 m/s 756 mmHg 84%
09:00 +3°C° 0 mm 6 m/s 756 mmHg 80%
10:00 +4°C° 0 mm 6 m/s 756 mmHg 76%
11:00 +4°C° 0 mm 7 m/s 757 mmHg 76%
12:00 +5°C° 0 mm 7 m/s 757 mmHg 76%
13:00 +5°C° 0 mm 8 m/s 757 mmHg 75%
14:00 +4°C° 0 mm 8 m/s 756 mmHg 79%
15:00 +3°C° 0 mm 7 m/s 756 mmHg 82%
16:00 +3°C° 0 mm 7 m/s 756 mmHg 85%
17:00 +3°C° 0 mm 7 m/s 756 mmHg 84%
18:00 +3°C° 0 mm 7 m/s 756 mmHg 83%
19:00 +3°C° 0 mm 7 m/s 757 mmHg 82%
20:00 +3°C° 0 mm 6 m/s 756 mmHg 82%
21:00 +3°C° 0 mm 6 m/s 756 mmHg 83%
22:00 +3°C° 0 mm 6 m/s 756 mmHg 83%
23:00 +2°C° 0 mm 6 m/s 757 mmHg 85%

Depois de amanhã, 27 Fevereiro, Sábado

Tempo Temperatura Precipitação Vento Pressão Humidade
00:00 +2°C° 0 mm 6 m/s 757 mmHg 87%
01:00 +2°C° 0 mm 6 m/s 757 mmHg 88%
02:00 +1°C° 0 mm 5 m/s 757 mmHg 90%
03:00 +1°C° 0 mm 4 m/s 758 mmHg 91%
04:00 +1°C° 0 mm 4 m/s 758 mmHg 93%
05:00 +1°C° 0 mm 3 m/s 758 mmHg 93%
06:00 +1°C° 0 mm 3 m/s 759 mmHg 94%
07:00 +1°C° 0 mm 2 m/s 759 mmHg 94%
08:00 +1°C° 0 mm 3 m/s 760 mmHg 88%
09:00 +2°C° 0 mm 3 m/s 760 mmHg 82%
10:00 +3°C° 0 mm 3 m/s 761 mmHg 76%
11:00 +4°C° 0 mm 3 m/s 761 mmHg 73%
12:00 +4°C° 0 mm 4 m/s 761 mmHg 69%
13:00 +5°C° 0 mm 4 m/s 762 mmHg 65%
14:00 +4°C° 0 mm 4 m/s 762 mmHg 67%
15:00 +4°C° 0 mm 4 m/s 762 mmHg 68%
16:00 +3°C° 0 mm 4 m/s 762 mmHg 70%
17:00 +2°C° 0 mm 3 m/s 762 mmHg 75%
18:00 +2°C° 0 mm 2 m/s 762 mmHg 80%
19:00 +1°C° 0 mm 2 m/s 763 mmHg 86%
20:00 +1°C° 0 mm 2 m/s 763 mmHg 86%
21:00 +1°C° 0 mm 2 m/s 763 mmHg 86%
22:00 -1°C° 0 mm 2 m/s 763 mmHg 86%
23:00 +1°C° 0 mm 2 m/s 763 mmHg 85%

28 Fevereiro, Domingo

Tempo Temperatura Precipitação Vento Pressão Humidade
00:00 +1°C° 0 mm 2 m/s 763 mmHg 84%
01:00 +1°C° 0 mm 2 m/s 763 mmHg 84%
02:00 +1°C° 0 mm 2 m/s 763 mmHg 84%
03:00 +1°C° 0 mm 2 m/s 763 mmHg 85%
04:00 -1°C° 0 mm 2 m/s 763 mmHg 85%
05:00 +1°C° 0 mm 2 m/s 763 mmHg 87%
06:00 +1°C° 0 mm 2 m/s 763 mmHg 89%
07:00 +1°C° 0 mm 2 m/s 763 mmHg 90%
08:00 +2°C° 0 mm 2 m/s 763 mmHg 89%
09:00 +3°C° 0 mm 2 m/s 763 mmHg 89%
10:00 +3°C° 0 mm 3 m/s 763 mmHg 88%
11:00 +4°C° 0 mm 3 m/s 763 mmHg 86%
12:00 +4°C° 0 mm 3 m/s 763 mmHg 84%
13:00 +5°C° 0 mm 3 m/s 763 mmHg 82%
14:00 +5°C° 0 mm 2 m/s 763 mmHg 85%
15:00 +5°C° 0 mm 2 m/s 763 mmHg 87%
16:00 +4°C° 0 mm 2 m/s 763 mmHg 90%
17:00 +4°C° 0 mm 2 m/s 763 mmHg 92%
18:00 +5°C° 0 mm 1 m/s 763 mmHg 93%
19:00 +4°C° 0 mm 1 m/s 763 mmHg 94%
20:00 +4°C° 0 mm 1 m/s 764 mmHg 94%
21:00 +3°C° 0 mm 1 m/s 764 mmHg 95%
22:00 +2°C° 0 mm 1 m/s 764 mmHg 95%
23:00 +2°C° 0 mm 1 m/s 764 mmHg 95%

1 Março, Segunda-feira

Tempo Temperatura Precipitação Vento Pressão Humidade
00:00 +1°C° 0 mm 0 m/s 764 mmHg 95%
01:00 +1°C° 0 mm 0 m/s 765 mmHg 96%
02:00 +1°C° 0 mm 0 m/s 765 mmHg 96%
03:00 +1°C° 0 mm 0 m/s 765 mmHg 96%
04:00 +1°C° 0 mm 0 m/s 765 mmHg 95%
05:00 +1°C° 0 mm 0 m/s 765 mmHg 95%
06:00 +1°C° 0 mm 0 m/s 765 mmHg 94%
07:00 +1°C° 0 mm 0 m/s 765 mmHg 94%
08:00 +3°C° 0 mm 1 m/s 765 mmHg 87%
09:00 +5°C° 0 mm 1 m/s 765 mmHg 81%
10:00 +6°C° 0 mm 1 m/s 766 mmHg 74%
11:00 +7°C° 0 mm 1 m/s 766 mmHg 71%
12:00 +7°C° 0 mm 2 m/s 766 mmHg 68%
13:00 +8°C° 0 mm 2 m/s 766 mmHg 65%
14:00 +8°C° 0 mm 2 m/s 765 mmHg 67%
15:00 +8°C° 0 mm 2 m/s 765 mmHg 69%
16:00 +8°C° 0 mm 2 m/s 765 mmHg 70%
17:00 +6°C° 0 mm 2 m/s 765 mmHg 76%
18:00 +5°C° 0 mm 2 m/s 765 mmHg 81%
19:00 +4°C° 0 mm 2 m/s 765 mmHg 86%
20:00 +4°C° 0 mm 2 m/s 765 mmHg 87%
21:00 +3°C° 0 mm 2 m/s 765 mmHg 89%
22:00 +3°C° 0 mm 2 m/s 765 mmHg 91%
23:00 +3°C° 0 mm 2 m/s 765 mmHg 91%

2 Março, Terça-feira

Tempo Temperatura Precipitação Vento Pressão Humidade
00:00 +3°C° 0 mm 2 m/s 764 mmHg 91%
01:00 +2°C° 0 mm 2 m/s 764 mmHg 92%
02:00 +2°C° 0 mm 2 m/s 764 mmHg 91%
03:00 +2°C° 0 mm 2 m/s 764 mmHg 91%
04:00 +2°C° 0 mm 2 m/s 763 mmHg 91%
05:00 +2°C° 0 mm 2 m/s 763 mmHg 91%
06:00 +1°C° 0 mm 2 m/s 763 mmHg 91%
07:00 +1°C° 0 mm 2 m/s 763 mmHg 92%
08:00 +3°C° 0 mm 2 m/s 763 mmHg 85%
09:00 +3°C° 0 mm 3 m/s 763 mmHg 79%
10:00 +5°C° 0 mm 3 m/s 763 mmHg 72%
11:00 +7°C° 0 mm 3 m/s 763 mmHg 68%
12:00 +8°C° 0 mm 3 m/s 763 mmHg 64%
13:00 +9°C° 0 mm 3 m/s 763 mmHg 59%
14:00 +9°C° 0 mm 2 m/s 762 mmHg 59%
15:00 +9°C° 0 mm 2 m/s 762 mmHg 60%
16:00 +9°C° 0 mm 2 m/s 762 mmHg 60%
17:00 +8°C° 0 mm 2 m/s 761 mmHg 65%
18:00 +6°C° 0 mm 2 m/s 761 mmHg 70%
19:00 +6°C° 0 mm 1 m/s 761 mmHg 75%
20:00 +5°C° 0 mm 2 m/s 761 mmHg 76%
21:00 +4°C° 0 mm 2 m/s 761 mmHg 78%
22:00 +4°C° 0 mm 2 m/s 761 mmHg 80%
23:00 +3°C° 0 mm 2 m/s 760 mmHg 82%
Mostrar mais

Necessitamos do seu Consentimento

A Meteoprog e os seus Fornecedores de Serviços podem armazenar e aceder a dados pessoais como cookies, identificadores do dispositivo ou outras tecnologias semelhantes existentes no seu dispositivo e processar estes dados para personalizar conteúdos e anúncios, assim como funcionalidades nas redes sociais e análise de tráfego.

  • Armazenar e/ou aceder a informações no seu dispositivo

    Os cookies, identificadores do dispositivo ou outras informações podem ser armazenados ou acedidos no seu dispositivo, para os fins acima indicados.

  • Anúncios e conteúdos personalizados, medição de anúncios e conteúdos, dados sobre o público-alvo e desenvolvimento de produtos

    Os anúncios e os conteúdos podem ser personalizados com base num perfil. Podem ser adicionados dados adicionais para uma maior personalização dos anúncios e dos conteúdos. A eficácia dos anúncios e dos conteúdos pode ser medida. Podem ser obtidas informações sobre o público que visualizou os anúncios e os conteúdos. Estes dados podem ser usados para desenvolver ou melhorar sistemas, softwares ou a experiência do utilizador.

Ao clicar em "Eu concordo”, permitirá o uso de cookies, identificadores do dispositivo e web beacons mencionados ou outras tecnologias semelhantes. As configurações do navegador do seu dispositivo podem ser alteradas.

Para certos fins, podem ser invocados interesses legítimos ao invés de consentimento. Pode ler mais informação sobre este assunto na nossa Política de Privacidade e Cookies.